When you browse on this site, cookies collect data to enhance your experience and personalize the content and advertising you see.
Visit our Privacy Policy to learn more. By continuing to use the site, you agree to this use of cookies and data.
  • In Lithuania
  • List of Countries
  • For 7 days
  • Water Temperature
  • Satellite Maps
  • Weather Map
  • Weather Widgets
  • user-avatar
    Login

    Hourly Weather Zadonschino

    Today, 21 January, Monday

    Time Temperature Precipitation Wind Pressure Humidity
    00:00 -11°C° 0 mm 6 mps 746 mmHg 88%
    01:00 -11°C° 0 mm 6 mps 745 mmHg 89%
    02:00 -12°C° 0 mm 6 mps 745 mmHg 90%
    03:00 -12°C° 0 mm 6 mps 745 mmHg 91%
    04:00 -14°C° 0.1 mm 6 mps 744 mmHg 92%
    05:00 -13°C° 0.1 mm 5 mps 744 mmHg 92%
    06:00 -13°C° 0.1 mm 5 mps 744 mmHg 93%
    07:00 -13°C° 0.2 mm 5 mps 744 mmHg 93%
    08:00 -14°C° 0.2 mm 5 mps 743 mmHg 94%
    09:00 -14°C° 0.2 mm 4 mps 743 mmHg 94%
    10:00 -12°C° 0.1 mm 4 mps 743 mmHg 94%
    11:00 -11°C° 0.1 mm 4 mps 743 mmHg 93%
    12:00 -12°C° 0.1 mm 5 mps 743 mmHg 93%
    13:00 -11°C° 0 mm 5 mps 743 mmHg 91%
    14:00 -11°C° 0 mm 5 mps 743 mmHg 88%
    15:00 -10°C° 0 mm 5 mps 743 mmHg 86%
    16:00 -11°C° 0 mm 5 mps 744 mmHg 86%
    17:00 -12°C° 0 mm 5 mps 744 mmHg 87%
    18:00 -13°C° 0 mm 5 mps 744 mmHg 87%
    19:00 -14°C° 0 mm 4 mps 745 mmHg 88%
    20:00 -15°C° 0 mm 4 mps 745 mmHg 89%
    21:00 -16°C° 0 mm 3 mps 745 mmHg 90%
    22:00 -16°C° 0 mm 3 mps 745 mmHg 91%
    23:00 -17°C° 0 mm 3 mps 746 mmHg 93%

    Tomorrow, 22 January, Tuesday

    Time Temperature Precipitation Wind Pressure Humidity
    00:00 -17°C° 0 mm 3 mps 746 mmHg 95%
    01:00 -18°C° 0 mm 3 mps 747 mmHg 95%
    02:00 -18°C° 0 mm 3 mps 747 mmHg 96%
    03:00 -18°C° 0 mm 3 mps 747 mmHg 97%
    04:00 -19°C° 0 mm 3 mps 747 mmHg 97%
    05:00 -21°C° 0 mm 3 mps 748 mmHg 97%
    06:00 -21°C° 0 mm 3 mps 748 mmHg 97%
    07:00 -22°C° 0 mm 3 mps 748 mmHg 97%
    08:00 -23°C° 0 mm 3 mps 749 mmHg 97%
    09:00 -23°C° 0 mm 3 mps 749 mmHg 97%
    10:00 -22°C° 0 mm 3 mps 750 mmHg 95%
    11:00 -21°C° 0 mm 3 mps 750 mmHg 94%
    12:00 -20°C° 0 mm 4 mps 750 mmHg 93%
    13:00 -19°C° 0 mm 3 mps 750 mmHg 93%
    14:00 -19°C° 0 mm 3 mps 751 mmHg 93%
    15:00 -19°C° 0 mm 3 mps 751 mmHg 93%
    16:00 -21°C° 0 mm 3 mps 751 mmHg 94%
    17:00 -22°C° 0 mm 3 mps 751 mmHg 94%
    18:00 -23°C° 0 mm 3 mps 752 mmHg 95%
    19:00 -23°C° 0 mm 3 mps 752 mmHg 94%
    20:00 -21°C° 0 mm 2 mps 752 mmHg 94%
    21:00 -23°C° 0 mm 2 mps 752 mmHg 94%
    22:00 -23°C° 0 mm 2 mps 752 mmHg 93%
    23:00 -23°C° 0 mm 2 mps 753 mmHg 92%

    Day after tomorrow, 23 January, Wednesday

    Time Temperature Precipitation Wind Pressure Humidity
    00:00 -23°C° 0 mm 2 mps 753 mmHg 92%
    01:00 -23°C° 0 mm 2 mps 753 mmHg 93%
    02:00 -23°C° 0 mm 2 mps 753 mmHg 94%
    03:00 -23°C° 0 mm 2 mps 753 mmHg 96%
    04:00 -23°C° 0 mm 2 mps 753 mmHg 97%
    05:00 -23°C° 0 mm 2 mps 753 mmHg 98%
    06:00 -23°C° 0 mm 2 mps 753 mmHg 99%
    07:00 -23°C° 0 mm 2 mps 753 mmHg 99%
    08:00 -23°C° 0 mm 2 mps 753 mmHg 99%
    09:00 -21°C° 0 mm 2 mps 753 mmHg 99%
    10:00 -22°C° 0 mm 3 mps 753 mmHg 98%
    11:00 -21°C° 0 mm 3 mps 753 mmHg 97%
    12:00 -18°C° 0 mm 3 mps 753 mmHg 96%
    13:00 -18°C° 0 mm 3 mps 753 mmHg 96%
    14:00 -18°C° 0 mm 3 mps 752 mmHg 96%
    15:00 -18°C° 0 mm 3 mps 752 mmHg 95%
    16:00 -18°C° 0 mm 3 mps 752 mmHg 96%
    17:00 -19°C° 0 mm 3 mps 751 mmHg 96%
    18:00 -19°C° 0 mm 3 mps 751 mmHg 97%
    19:00 -19°C° 0.1 mm 3 mps 751 mmHg 96%
    20:00 -18°C° 0.1 mm 3 mps 750 mmHg 96%
    21:00 -18°C° 0.1 mm 3 mps 750 mmHg 96%
    22:00 -17°C° 0.3 mm 3 mps 750 mmHg 96%
    23:00 -17°C° 0.3 mm 3 mps 749 mmHg 96%

    24 January, Thursday

    Time Temperature Precipitation Wind Pressure Humidity
    00:00 -17°C° 0.3 mm 3 mps 749 mmHg 96%
    01:00 -18°C° 0.4 mm 4 mps 748 mmHg 96%
    02:00 -17°C° 0.4 mm 4 mps 747 mmHg 96%
    03:00 -17°C° 0.4 mm 4 mps 747 mmHg 96%
    04:00 -16°C° 0.3 mm 3 mps 746 mmHg 96%
    05:00 -16°C° 0.3 mm 3 mps 746 mmHg 96%
    06:00 -15°C° 0.3 mm 2 mps 745 mmHg 96%
    07:00 -16°C° 0 mm 2 mps 746 mmHg 97%
    08:00 -17°C° 0 mm 2 mps 746 mmHg 97%
    09:00 -17°C° 0 mm 2 mps 746 mmHg 97%
    10:00 -18°C° 0 mm 3 mps 746 mmHg 97%
    11:00 -17°C° 0 mm 3 mps 746 mmHg 96%
    12:00 -17°C° 0 mm 3 mps 747 mmHg 96%
    13:00 -16°C° 0 mm 3 mps 747 mmHg 95%
    14:00 -16°C° 0 mm 3 mps 747 mmHg 95%
    15:00 -15°C° 0 mm 2 mps 747 mmHg 95%
    16:00 -17°C° 0 mm 3 mps 748 mmHg 95%
    17:00 -17°C° 0 mm 3 mps 748 mmHg 96%
    18:00 -18°C° 0 mm 3 mps 749 mmHg 96%
    19:00 -18°C° 0 mm 3 mps 749 mmHg 96%
    20:00 -19°C° 0 mm 3 mps 750 mmHg 96%
    21:00 -19°C° 0 mm 3 mps 750 mmHg 96%
    22:00 -21°C° 0 mm 3 mps 751 mmHg 97%
    23:00 -21°C° 0 mm 3 mps 751 mmHg 97%

    25 January, Friday

    Time Temperature Precipitation Wind Pressure Humidity
    00:00 -22°C° 0 mm 3 mps 752 mmHg 98%
    01:00 -22°C° 0 mm 3 mps 752 mmHg 98%
    02:00 -21°C° 0 mm 2 mps 752 mmHg 98%
    03:00 -21°C° 0 mm 2 mps 753 mmHg 97%
    04:00 -23°C° 0 mm 2 mps 753 mmHg 96%
    05:00 -23°C° 0 mm 2 mps 753 mmHg 95%
    06:00 -23°C° 0 mm 2 mps 754 mmHg 94%
    07:00 -24°C° 0 mm 2 mps 754 mmHg 94%
    08:00 -24°C° 0 mm 2 mps 755 mmHg 93%
    09:00 -24°C° 0 mm 2 mps 755 mmHg 92%
    10:00 -20°C° 0 mm 1 mps 755 mmHg 91%
    11:00 -18°C° 0 mm 1 mps 755 mmHg 90%
    12:00 -17°C° 0 mm 1 mps 756 mmHg 88%
    13:00 -17°C° 0 mm 1 mps 755 mmHg 88%
    14:00 -17°C° 0 mm 1 mps 755 mmHg 88%
    15:00 -17°C° 0 mm 1 mps 755 mmHg 88%
    16:00 -18°C° 0 mm 1 mps 755 mmHg 88%
    17:00 -19°C° 0 mm 1 mps 755 mmHg 88%
    18:00 -20°C° 0 mm 1 mps 755 mmHg 87%
    19:00 -20°C° 0 mm 1 mps 755 mmHg 88%
    20:00 -23°C° 0 mm 2 mps 755 mmHg 88%
    21:00 -24°C° 0 mm 2 mps 755 mmHg 88%
    22:00 -24°C° 0 mm 2 mps 755 mmHg 89%
    23:00 -24°C° 0 mm 2 mps 755 mmHg 90%

    26 January, Saturday

    Time Temperature Precipitation Wind Pressure Humidity
    00:00 -24°C° 0 mm 2 mps 755 mmHg 91%
    01:00 -24°C° 0 mm 2 mps 754 mmHg 91%
    02:00 -25°C° 0 mm 2 mps 754 mmHg 92%
    03:00 -25°C° 0 mm 2 mps 754 mmHg 93%
    04:00 -25°C° 0 mm 2 mps 753 mmHg 93%
    05:00 -25°C° 0 mm 2 mps 753 mmHg 94%
    06:00 -26°C° 0 mm 3 mps 752 mmHg 94%
    07:00 -26°C° 0 mm 3 mps 752 mmHg 94%
    08:00 -26°C° 0 mm 3 mps 752 mmHg 94%
    09:00 -26°C° 0 mm 3 mps 752 mmHg 94%
    10:00 -25°C° 0 mm 3 mps 751 mmHg 92%
    11:00 -23°C° 0 mm 3 mps 751 mmHg 89%
    12:00 -23°C° 0 mm 4 mps 750 mmHg 87%
    13:00 -23°C° 0 mm 4 mps 750 mmHg 87%
    14:00 -23°C° 0 mm 4 mps 749 mmHg 87%
    15:00 -22°C° 0 mm 4 mps 749 mmHg 88%
    16:00 -22°C° 0 mm 3 mps 748 mmHg 90%
    17:00 -23°C° 0 mm 3 mps 748 mmHg 92%
    18:00 -24°C° 0 mm 3 mps 748 mmHg 94%
    19:00 -23°C° 0 mm 4 mps 747 mmHg 94%
    20:00 -22°C° 0 mm 4 mps 747 mmHg 94%
    21:00 -19°C° 0 mm 4 mps 746 mmHg 94%
    22:00 -19°C° 0 mm 4 mps 746 mmHg 94%
    23:00 -19°C° 0 mm 5 mps 745 mmHg 94%
    Show more